BRISAT (41591 NORAD) Tracking and Keplerian Element Data

This shows tracking and keplerian element data for the satellite.

Feedback or suggestion? Click here.




ElementValue
Catalog41591
NameBRISAT
Epoch Orbit761
Epoch Day194.77201367
Epoch Year2018
RAAN33.3839
Inclination0.0196
Eccentricity0.000187
Argument of Perigee75.7346
Mean Anonmoly250.9018
Mean Motion1.00270761
Decay Rate-2.1E-06
L11 41591U 16039A 18194.77201367 -.00000210 00000-0 00000+0 0 9998
L22 41591 0.0196 33.3839 0001870 75.7346 250.9018 1.00270761 7618

Live tracking and technical data element details for BRISAT (NORAD 41591). BRISAT can be tracked NOW for your location showing map with azimuth and elevation plus other details from your city location.

Track the satellite on the map from your city or location and see movement details for azimuth, elevation, latitude, longitude, range, height, and movement on the map or in text.







IsCatalogInMostPopularTable: catalog: 41591, numindb: 84
Update: records affected: 1



GetName: 41591 BRISAT

Hit Count: updated at: Sun, 15 Jul 2018 23:17:52 GMT